Location: Unspecified
(0.0000°N, 0.0000°E)
Time: 16:34:01
(UTC+00:00)

BEESAT - Pass Details

Date: 05 June 2019
Orbit: 700 x 709 km, 98.6° (Epoch: 17 June)

Event Time Altitude Azimuth Distance (km) Brightness Sun altitude
Rises 04:44:35 0° 173° (S) 3,099 ? -17.0°
Reaches altitude 10° 04:46:51 10° 176° (S) 2,179 ? -16.5°
Maximum altitude 04:51:35 65° 258° (WSW) 778 ? -15.4°
Drops below altitude 10° 04:56:18 10° 339° (NNW) 2,172 ? -14.3°
Sets 04:58:34 0° 342° (NNW) 3,089 ? -13.8°
